Location: Poughquag
(41.6090°N, 73.6820°W)
Time: 12:42:54
(UTC-04:00)

Transit 2A Rocket - Pass Details

Date: 04 June 2020
Orbit: 584 x 919 km, 66.7° (Epoch: 06 July)

Event Time Altitude Azimuth Distance (km) Brightness Sun altitude
Rises 05:40:50 0° 337° (NNW) 3,500 8.5 2.3°
Reaches altitude 10° 05:43:44 10° 349° (N) 2,588 8.0 2.8°
Maximum altitude 05:48:48 27° 46° (NE) 1,697 8.1 3.6°
Drops below altitude 10° 05:53:54 10° 102° (ESE) 2,606 8.7 4.5°
Sets 05:56:49 0° 114° (ESE) 3,528 9.1 4.9°
